Wetterdaten: Dienstag, 18.08.2015
Datum Zeit Auen-Temp. Temp gefhlt Luftfeuchte Luftdruck Regen Wind Richtung Richtung Taupunkt Windben
18.08.2015 00:00 11,0 C 10,9 C 90 % 1009,1 hPa 0,0 mm 0,0 km/h (0 Bft) W 270 9,4 C 0,0 km/h (0 Bft)
18.08.2015 00:05 11,0 C 10,9 C 90 % 1009,1 hPa 0,0 mm 0,0 km/h (0 Bft) W-SW 247 9,4 C 0,0 km/h (0 Bft)
18.08.2015 00:10 11,0 C 10,9 C 90 % 1009,1 hPa 0,0 mm 0,0 km/h (0 Bft) W-SW 247 9,4 C 2,8 km/h (1 Bft)
18.08.2015 00:15 11,1 C 10,9 C 90 % 1008,8 hPa 0,0 mm 0,8 km/h (0 Bft) S-SW 202 9,5 C 0,0 km/h (0 Bft)
18.08.2015 00:20 11,1 C 11,0 C 90 % 1008,8 hPa 0,0 mm 1,3 km/h (1 Bft) S 180 9,5 C 6,5 km/h (2 Bft)
18.08.2015 00:25 11,1 C 11,0 C 90 % 1008,8 hPa 0,0 mm 0,8 km/h (0 Bft) S-SO 157 9,5 C 0,0 km/h (0 Bft)
18.08.2015 00:30 11,1 C 11,0 C 90 % 1008,8 hPa 0,0 mm 0,3 km/h (0 Bft) W-NW 292 9,5 C 0,0 km/h (0 Bft)
18.08.2015 00:35 11,1 C 11,0 C 90 % 1009,0 hPa 0,0 mm 0,3 km/h (0 Bft) W-SW 247 9,5 C 0,0 km/h (0 Bft)
18.08.2015 00:40 11,1 C 10,9 C 90 % 1009,0 hPa 0,0 mm 0,0 km/h (0 Bft) W-SW 247 9,5 C 2,8 km/h (1 Bft)
18.08.2015 00:45 11,1 C 10,9 C 90 % 1009,0 hPa 0,0 mm 1,3 km/h (1 Bft) S 180 9,5 C 7,0 km/h (2 Bft)
18.08.2015 00:50 11,1 C 10,9 C 90 % 1009,0 hPa 0,0 mm 1,3 km/h (1 Bft) SO 135 9,5 C 0,0 km/h (0 Bft)
18.08.2015 00:55 11,1 C 10,9 C 90 % 1008,8 hPa 0,0 mm 0,5 km/h (0 Bft) SO 135 9,5 C 0,0 km/h (0 Bft)
18.08.2015 01:00 11,1 C 10,9 C 90 % 1008,8 hPa 0,0 mm 0,3 km/h (0 Bft) SW 225 9,5 C 3,6 km/h (1 Bft)
18.08.2015 01:05 11,1 C 10,9 C 90 % 1008,8 hPa 0,0 mm 0,5 km/h (0 Bft) W 270 9,5 C 0,0 km/h (0 Bft)
18.08.2015 01:10 11,1 C 10,9 C 90 % 1008,8 hPa 0,0 mm 0,3 km/h (0 Bft) SW 225 9,5 C 0,0 km/h (0 Bft)
18.08.2015 01:15 11,0 C 10,9 C 90 % 1008,8 hPa 0,0 mm 0,8 km/h (0 Bft) W-SW 247 9,4 C 0,0 km/h (0 Bft)
18.08.2015 01:20 10,7 C 10,6 C 90 % 1008,8 hPa 0,0 mm 0,8 km/h (0 Bft) W-SW 247 9,1 C 0,0 km/h (0 Bft)
18.08.2015 01:25 10,7 C 10,5 C 90 % 1008,8 hPa 0,0 mm 0,3 km/h (0 Bft) SW 225 9,1 C 0,0 km/h (0 Bft)
18.08.2015 01:30 10,5 C 10,3 C 90 % 1008,8 hPa 0,0 mm 0,0 km/h (0 Bft) S 180 8,9 C 0,0 km/h (0 Bft)
18.08.2015 01:35 10,4 C 10,2 C 90 % 1008,8 hPa 0,0 mm 0,0 km/h (0 Bft) NW 315 8,8 C 0,0 km/h (0 Bft)
18.08.2015 01:40 10,3 C 10,1 C 90 % 1008,8 hPa 0,0 mm 0,0 km/h (0 Bft) W-SW 247 8,7 C 0,0 km/h (0 Bft)
18.08.2015 01:45 10,1 C 9,9 C 90 % 1008,8 hPa 0,0 mm 0,0 km/h (0 Bft) W 270 8,5 C 0,0 km/h (0 Bft)
18.08.2015 01:50 10,1 C 9,9 C 90 % 1008,8 hPa 0,0 mm 0,0 km/h (0 Bft) S 180 8,5 C 0,0 km/h (0 Bft)
18.08.2015 01:55 9,8 C 9,6 C 90 % 1008,7 hPa 0,0 mm 0,0 km/h (0 Bft) W 270 8,2 C 0,0 km/h (0 Bft)
18.08.2015 02:00 9,5 C 9,3 C 90 % 1008,7 hPa 0,0 mm 0,0 km/h (0 Bft) W 270 7,9 C 0,0 km/h (0 Bft)
18.08.2015 02:05 9,4 C 9,2 C 90 % 1008,7 hPa 0,0 mm 0,0 km/h (0 Bft) W-NW 292 7,8 C 0,0 km/h (0 Bft)
18.08.2015 02:10 9,4 C 9,2 C 90 % 1008,7 hPa 0,0 mm 0,0 km/h (0 Bft) W 270 7,8 C 0,0 km/h (0 Bft)
18.08.2015 02:15 9,5 C 9,2 C 90 % 1008,8 hPa 0,0 mm 0,0 km/h (0 Bft) S 180 7,9 C 0,0 km/h (0 Bft)
18.08.2015 02:20 9,3 C 9,1 C 90 % 1008,8 hPa 0,0 mm 0,0 km/h (0 Bft) NW 315 7,7 C 0,0 km/h (0 Bft)
18.08.2015 02:25 9,2 C 9,0 C 90 % 1008,8 hPa 0,0 mm 0,0 km/h (0 Bft) W 270 7,6 C 0,0 km/h (0 Bft)
18.08.2015 02:30 9,3 C 9,1 C 90 % 1008,8 hPa 0,0 mm 0,0 km/h (0 Bft) NW 315 7,7 C 0,0 km/h (0 Bft)
18.08.2015 02:35 9,1 C 8,9 C 90 % 1008,6 hPa 0,0 mm 0,0 km/h (0 Bft) W-SW 247 7,5 C 0,0 km/h (0 Bft)
18.08.2015 02:40 9,2 C 9,0 C 90 % 1008,6 hPa 0,0 mm 0,0 km/h (0 Bft) NO 45 7,6 C 0,0 km/h (0 Bft)
18.08.2015 02:45 9,0 C 8,8 C 90 % 1008,6 hPa 0,0 mm 0,0 km/h (0 Bft) O-SO 112 7,4 C 0,0 km/h (0 Bft)
18.08.2015 02:50 8,7 C 8,6 C 90 % 1008,6 hPa 0,0 mm 0,0 km/h (0 Bft) NW 315 7,2 C 0,0 km/h (0 Bft)
18.08.2015 02:55 8,7 C 8,5 C 90 % 1008,6 hPa 0,0 mm 0,0 km/h (0 Bft) NW 315 7,2 C 0,0 km/h (0 Bft)
18.08.2015 03:00 8,8 C 8,6 C 90 % 1008,6 hPa 0,0 mm 0,0 km/h (0 Bft) W-SW 247 7,3 C 0,0 km/h (0 Bft)
18.08.2015 03:05 8,8 C 8,6 C 90 % 1008,6 hPa 0,0 mm 0,0 km/h (0 Bft) W-SW 247 7,3 C 0,0 km/h (0 Bft)
18.08.2015 03:10 9,0 C 8,8 C 90 % 1008,6 hPa 0,0 mm 0,0 km/h (0 Bft) W-SW 247 7,4 C 0,0 km/h (0 Bft)
18.08.2015 03:15 9,1 C 8,9 C 88 % 1008,7 hPa 0,0 mm 0,0 km/h (0 Bft) W-SW 247 7,2 C 0,0 km/h (0 Bft)
18.08.2015 03:20 9,1 C 8,9 C 91 % 1008,7 hPa 0,0 mm 0,0 km/h (0 Bft) W-SW 247 7,7 C 0,0 km/h (0 Bft)
18.08.2015 03:25 9,1 C 8,9 C 91 % 1008,7 hPa 0,0 mm 0,3 km/h (0 Bft) W-SW 247 7,7 C 3,1 km/h (1 Bft)
18.08.2015 03:30 9,3 C 9,1 C 91 % 1008,7 hPa 0,0 mm 1,0 km/h (0 Bft) S 180 7,9 C 0,0 km/h (0 Bft)
18.08.2015 03:35 9,3 C 9,1 C 91 % 1008,6 hPa 0,0 mm 1,8 km/h (1 Bft) S 180 7,9 C 3,9 km/h (1 Bft)
18.08.2015 03:40 9,4 C 9,2 C 91 % 1008,6 hPa 0,0 mm 1,6 km/h (1 Bft) SW 225 8,0 C 2,6 km/h (1 Bft)
18.08.2015 03:45 9,3 C 9,2 C 91 % 1008,6 hPa 0,0 mm 1,0 km/h (0 Bft) S-SW 202 7,9 C 0,0 km/h (0 Bft)
18.08.2015 03:50 9,2 C 9,1 C 91 % 1008,6 hPa 0,0 mm 0,0 km/h (0 Bft) W-SW 247 7,8 C 0,0 km/h (0 Bft)
18.08.2015 03:55 9,1 C 9,0 C 91 % 1008,8 hPa 0,0 mm 0,0 km/h (0 Bft) W 270 7,7 C 0,0 km/h (0 Bft)
18.08.2015 04:00 8,9 C 8,7 C 91 % 1008,8 hPa 0,0 mm 0,0 km/h (0 Bft) W-SW 247 7,5 C 0,0 km/h (0 Bft)
18.08.2015 04:05 8,9 C 8,7 C 91 % 1008,8 hPa 0,0 mm 0,0 km/h (0 Bft) W-SW 247 7,5 C 0,0 km/h (0 Bft)
18.08.2015 04:10 8,9 C 8,7 C 91 % 1008,8 hPa 0,0 mm 0,0 km/h (0 Bft) S-SW 202 7,5 C 0,0 km/h (0 Bft)
18.08.2015 04:15 8,7 C 8,5 C 91 % 1008,7 hPa 0,0 mm 0,0 km/h (0 Bft) W 270 7,3 C 0,0 km/h (0 Bft)
18.08.2015 04:20 8,7 C 8,5 C 91 % 1008,7 hPa 0,0 mm 0,0 km/h (0 Bft) W-SW 247 7,3 C 0,0 km/h (0 Bft)
18.08.2015 04:25 8,7 C 8,5 C 91 % 1008,7 hPa 0,0 mm 0,0 km/h (0 Bft) W-SW 247 7,3 C 0,0 km/h (0 Bft)
18.08.2015 04:30 9,0 C 8,7 C 91 % 1008,7 hPa 0,0 mm 0,8 km/h (0 Bft) S 180 7,6 C 0,0 km/h (0 Bft)
18.08.2015 04:35 9,0 C 8,8 C 91 % 1008,4 hPa 0,0 mm 0,5 km/h (0 Bft) SW 225 7,6 C 0,0 km/h (0 Bft)
18.08.2015 04:40 8,6 C 8,5 C 91 % 1008,4 hPa 0,0 mm 0,3 km/h (0 Bft) W-SW 247 7,2 C 0,0 km/h (0 Bft)
18.08.2015 04:45 8,8 C 8,6 C 91 % 1008,4 hPa 0,0 mm 0,0 km/h (0 Bft) SW 225 7,4 C 0,0 km/h (0 Bft)
18.08.2015 04:50 8,6 C 8,5 C 91 % 1008,4 hPa 0,0 mm 0,0 km/h (0 Bft) W-SW 247 7,2 C 0,0 km/h (0 Bft)
18.08.2015 04:55 8,7 C 8,5 C 91 % 1008,6 hPa 0,0 mm 0,0 km/h (0 Bft) W-SW 247 7,3 C 0,0 km/h (0 Bft)
18.08.2015 05:00 9,0 C 8,7 C 91 % 1008,6 hPa 0,0 mm 0,0 km/h (0 Bft) S 180 7,6 C 0,0 km/h (0 Bft)
18.08.2015 05:05 8,9 C 8,7 C 91 % 1008,6 hPa 0,0 mm 0,0 km/h (0 Bft) W 270 7,5 C 0,0 km/h (0 Bft)
18.08.2015 05:10 8,9 C 8,8 C 91 % 1008,6 hPa 0,0 mm 0,0 km/h (0 Bft) W 270 7,5 C 0,0 km/h (0 Bft)
18.08.2015 05:15 9,0 C 8,8 C 91 % 1008,4 hPa 0,0 mm 0,0 km/h (0 Bft) S 180 7,6 C 0,0 km/h (0 Bft)
18.08.2015 05:20 9,2 C 9,0 C 91 % 1008,4 hPa 0,0 mm 0,0 km/h (0 Bft) S 180 7,8 C 0,0 km/h (0 Bft)
18.08.2015 05:25 9,1 C 9,0 C 91 % 1008,4 hPa 0,0 mm 0,0 km/h (0 Bft) NW 315 7,7 C 0,0 km/h (0 Bft)
18.08.2015 05:30 9,1 C 9,0 C 92 % 1008,4 hPa 0,0 mm 0,0 km/h (0 Bft) W-SW 247 7,9 C 0,0 km/h (0 Bft)
18.08.2015 05:35 9,2 C 9,1 C 92 % 1008,4 hPa 0,0 mm 0,0 km/h (0 Bft) W 270 8,0 C 0,0 km/h (0 Bft)
18.08.2015 05:36 9,2 C 9,1 C 92 % 1008,4 hPa 0,0 mm 0,0 km/h (0 Bft) NW 315 8,0 C 0,0 km/h (0 Bft)
18.08.2015 05:38 9,2 C 9,1 C 92 % 1008,4 hPa 0,0 mm 0,0 km/h (0 Bft) NW 315 8,0 C 0,0 km/h (0 Bft)
18.08.2015 05:40 9,2 C 9,1 C 92 % 1008,4 hPa 0,0 mm 0,0 km/h (0 Bft) NW 315 8,0 C 0,0 km/h (0 Bft)
18.08.2015 05:45 9,3 C 9,2 C 92 % 1008,4 hPa 0,0 mm 1,0 km/h (0 Bft) SW 225 8,1 C 4,7 km/h (1 Bft)
18.08.2015 05:50 9,4 C 9,3 C 92 % 1008,4 hPa 0,0 mm 1,3 km/h (1 Bft) S 180 8,2 C 9,1 km/h (2 Bft)
18.08.2015 05:55 9,5 C 9,5 C 88 % 1008,3 hPa 0,0 mm 0,8 km/h (0 Bft) SO 135 7,6 C 0,0 km/h (0 Bft)
18.08.2015 06:00 9,6 C 9,6 C 88 % 1008,3 hPa 0,0 mm 0,0 km/h (0 Bft) S-SO 157 7,7 C 0,0 km/h (0 Bft)
18.08.2015 06:05 9,7 C 9,6 C 92 % 1008,3 hPa 0,0 mm 0,0 km/h (0 Bft) SW 225 8,5 C 0,0 km/h (0 Bft)
18.08.2015 06:10 9,7 C 9,6 C 92 % 1008,3 hPa 0,0 mm 0,0 km/h (0 Bft) W-SW 247 8,5 C 0,0 km/h (0 Bft)
18.08.2015 06:15 9,8 C 9,7 C 92 % 1008,3 hPa 0,0 mm 0,0 km/h (0 Bft) SW 225 8,6 C 0,0 km/h (0 Bft)
18.08.2015 06:20 9,8 C 9,7 C 92 % 1008,3 hPa 0,0 mm 0,0 km/h (0 Bft) NW 315 8,6 C 0,0 km/h (0 Bft)
18.08.2015 06:25 9,8 C 9,7 C 92 % 1008,3 hPa 0,0 mm 0,0 km/h (0 Bft) NW 315 8,6 C 0,0 km/h (0 Bft)
18.08.2015 06:30 9,8 C 9,7 C 92 % 1008,3 hPa 0,0 mm 0,0 km/h (0 Bft) W-NW 292 8,6 C 0,0 km/h (0 Bft)
18.08.2015 06:35 9,8 C 9,7 C 92 % 1008,4 hPa 0,0 mm 0,0 km/h (0 Bft) W-NW 292 8,6 C 0,0 km/h (0 Bft)
18.08.2015 06:40 9,9 C 9,8 C 92 % 1008,4 hPa 0,0 mm 0,0 km/h (0 Bft) W-NW 292 8,7 C 0,0 km/h (0 Bft)
18.08.2015 06:45 9,9 C 9,9 C 89 % 1008,4 hPa 0,0 mm 0,0 km/h (0 Bft) W-NW 292 8,2 C 0,0 km/h (0 Bft)
18.08.2015 06:50 10,0 C 10,0 C 88 % 1008,4 hPa 0,0 mm 0,0 km/h (0 Bft) N-NO 22 8,1 C 0,0 km/h (0 Bft)
18.08.2015 06:55 10,1 C 10,0 C 92 % 1008,7 hPa 0,0 mm 0,0 km/h (0 Bft) W-NW 292 8,9 C 0,0 km/h (0 Bft)
18.08.2015 07:00 10,1 C 10,1 C 88 % 1008,7 hPa 0,0 mm 0,0 km/h (0 Bft) W-NW 292 8,2 C 0,0 km/h (0 Bft)
18.08.2015 07:05 10,1 C 10,2 C 88 % 1008,7 hPa 0,0 mm 0,0 km/h (0 Bft) N-NO 22 8,2 C 0,0 km/h (0 Bft)
18.08.2015 07:10 10,2 C 10,2 C 88 % 1008,7 hPa 0,0 mm 0,0 km/h (0 Bft) N-NO 22 8,3 C 0,0 km/h (0 Bft)
18.08.2015 07:15 10,2 C 10,3 C 88 % 1008,7 hPa 0,0 mm 0,0 km/h (0 Bft) W-NW 292 8,3 C 0,0 km/h (0 Bft)
18.08.2015 07:20 10,3 C 10,4 C 89 % 1008,7 hPa 0,0 mm 0,0 km/h (0 Bft) W-NW 292 8,6 C 0,0 km/h (0 Bft)
18.08.2015 07:25 10,4 C 10,5 C 89 % 1008,7 hPa 0,0 mm 0,0 km/h (0 Bft) W-NW 292 8,7 C 0,0 km/h (0 Bft)
18.08.2015 07:30 10,5 C 10,6 C 89 % 1008,7 hPa 0,0 mm 0,0 km/h (0 Bft) W-NW 292 8,8 C 0,0 km/h (0 Bft)
18.08.2015 07:35 10,6 C 10,8 C 89 % 1008,9 hPa 0,0 mm 0,0 km/h (0 Bft) W-NW 292 8,9 C 0,0 km/h (0 Bft)
18.08.2015 07:40 10,7 C 10,9 C 89 % 1008,9 hPa 0,0 mm 0,0 km/h (0 Bft) NW 315 9,0 C 0,0 km/h (0 Bft)
18.08.2015 07:45 10,7 C 11,0 C 89 % 1008,9 hPa 0,0 mm 0,0 km/h (0 Bft) W 270 9,0 C 0,0 km/h (0 Bft)
18.08.2015 07:50 10,9 C 11,3 C 89 % 1008,9 hPa 0,0 mm 0,0 km/h (0 Bft) SO 135 9,2 C 0,0 km/h (0 Bft)
18.08.2015 07:55 11,0 C 11,4 C 88 % 1009,0 hPa 0,0 mm 0,0 km/h (0 Bft) SO 135 9,1 C 0,0 km/h (0 Bft)
18.08.2015 08:00 11,3 C 11,7 C 88 % 1009,0 hPa 0,0 mm 0,3 km/h (0 Bft) W-NW 292 9,4 C 0,0 km/h (0 Bft)
18.08.2015 08:05 11,4 C 11,8 C 88 % 1009,0 hPa 0,0 mm 0,3 km/h (0 Bft) W 270 9,5 C 0,0 km/h (0 Bft)
18.08.2015 08:10 11,7 C 12,1 C 89 % 1009,0 hPa 0,0 mm 0,0 km/h (0 Bft) N-NW 337 9,9 C 0,0 km/h (0 Bft)
18.08.2015 08:15 11,8 C 12,3 C 89 % 1008,9 hPa 0,0 mm 0,0 km/h (0 Bft) N-NW 337 10,0 C 0,0 km/h (0 Bft)
18.08.2015 08:20 12,0 C 12,7 C 88 % 1008,9 hPa 0,0 mm 0,0 km/h (0 Bft) NO 45 10,1 C 0,0 km/h (0 Bft)
18.08.2015 08:25 12,2 C 12,9 C 88 % 1008,9 hPa 0,0 mm 0,3 km/h (0 Bft) W-NW 292 10,3 C 3,4 km/h (1 Bft)
18.08.2015 08:30 12,4 C 13,2 C 88 % 1008,9 hPa 0,0 mm 0,8 km/h (0 Bft) N-NW 337 10,5 C 0,0 km/h (0 Bft)
18.08.2015 08:35 12,7 C 13,8 C 88 % 1009,1 hPa 0,0 mm 1,0 km/h (0 Bft) N-NW 337 10,8 C 0,0 km/h (0 Bft)
18.08.2015 08:40 12,9 C 14,1 C 88 % 1009,1 hPa 0,0 mm 0,3 km/h (0 Bft) N-NW 337 11,0 C 0,0 km/h (0 Bft)
18.08.2015 08:45 13,0 C 14,0 C 88 % 1009,1 hPa 0,0 mm 1,0 km/h (0 Bft) N-NW 337 11,1 C 2,8 km/h (1 Bft)
18.08.2015 08:50 13,1 C 13,8 C 88 % 1009,1 hPa 0,0 mm 0,8 km/h (0 Bft) N-NO 22 11,2 C 0,0 km/h (0 Bft)
18.08.2015 08:55 13,2 C 13,9 C 88 % 1009,2 hPa 0,0 mm 0,3 km/h (0 Bft) N 360 11,3 C 0,0 km/h (0 Bft)
18.08.2015 09:00 13,4 C 14,4 C 88 % 1009,2 hPa 0,0 mm 0,0 km/h (0 Bft) NW 315 11,5 C 0,0 km/h (0 Bft)
18.08.2015 09:05 13,5 C 14,7 C 88 % 1009,2 hPa 0,0 mm 0,3 km/h (0 Bft) N-NW 337 11,6 C 0,0 km/h (0 Bft)
18.08.2015 09:10 13,7 C 15,6 C 87 % 1009,2 hPa 0,0 mm 0,5 km/h (0 Bft) N-NO 22 11,6 C 0,0 km/h (0 Bft)
18.08.2015 09:15 14,0 C 16,2 C 87 % 1009,4 hPa 0,0 mm 0,8 km/h (0 Bft) NW 315 11,9 C 0,0 km/h (0 Bft)
18.08.2015 09:20 14,3 C 16,9 C 87 % 1009,4 hPa 0,0 mm 0,5 km/h (0 Bft) N-NW 337 12,2 C 0,0 km/h (0 Bft)
18.08.2015 09:25 14,5 C 17,2 C 87 % 1009,4 hPa 0,0 mm 0,8 km/h (0 Bft) NW 315 12,4 C 0,0 km/h (0 Bft)
18.08.2015 09:30 14,8 C 17,7 C 87 % 1009,4 hPa 0,0 mm 0,5 km/h (0 Bft) N-NW 337 12,7 C 0,0 km/h (0 Bft)
18.08.2015 09:35 14,8 C 17,9 C 86 % 1009,5 hPa 0,0 mm 0,0 km/h (0 Bft) N-NW 337 12,5 C 0,0 km/h (0 Bft)
18.08.2015 09:40 15,2 C 18,8 C 85 % 1009,5 hPa 0,0 mm 0,0 km/h (0 Bft) NW 315 12,7 C 0,0 km/h (0 Bft)
18.08.2015 09:45 15,5 C 19,5 C 85 % 1009,5 hPa 0,0 mm 0,3 km/h (0 Bft) NO 45 13,0 C 5,2 km/h (1 Bft)
18.08.2015 09:50 15,7 C 19,9 C 84 % 1009,5 hPa 0,0 mm 1,8 km/h (1 Bft) O-SO 112 13,0 C 0,0 km/h (0 Bft)
18.08.2015 09:55 15,9 C 20,5 C 83 % 1009,5 hPa 0,0 mm 1,8 km/h (1 Bft) SW 225 13,0 C 0,0 km/h (0 Bft)
18.08.2015 10:00 16,0 C 21,0 C 80 % 1009,5 hPa 0,0 mm 1,8 km/h (1 Bft) O-NO 67 12,5 C 6,0 km/h (2 Bft)
18.08.2015 10:05 16,4 C 21,8 C 80 % 1009,5 hPa 0,7 mm 2,1 km/h (1 Bft) SO 135 12,9 C 0,0 km/h (0 Bft)
18.08.2015 10:10 16,0 C 21,9 C 78 % 1009,5 hPa 0,0 mm 1,3 km/h (1 Bft) SO 135 12,2 C 0,0 km/h (0 Bft)
18.08.2015 10:15 16,1 C 22,1 C 78 % 1009,8 hPa 0,0 mm 1,3 km/h (1 Bft) W 270 12,3 C 5,7 km/h (1 Bft)
18.08.2015 10:20 16,1 C 22,1 C 77 % 1009,8 hPa 0,0 mm 0,8 km/h (0 Bft) S-SW 202 12,1 C 0,0 km/h (0 Bft)
18.08.2015 10:25 16,2 C 21,9 C 76 % 1009,8 hPa 0,0 mm 1,3 km/h (1 Bft) N 360 12,0 C 0,0 km/h (0 Bft)
18.08.2015 10:30 16,3 C 21,4 C 76 % 1009,8 hPa 0,0 mm 2,6 km/h (1 Bft) O-NO 67 12,1 C 10,4 km/h (2 Bft)
18.08.2015 10:35 16,0 C 20,3 C 75 % 1010,0 hPa 0,0 mm 4,7 km/h (1 Bft) O-NO 67 11,6 C 5,4 km/h (1 Bft)
18.08.2015 10:40 16,0 C 19,6 C 76 % 1010,0 hPa 0,0 mm 3,9 km/h (1 Bft) N-NO 22 11,8 C 4,1 km/h (1 Bft)
18.08.2015 10:45 16,1 C 19,4 C 75 % 1010,0 hPa 0,0 mm 2,3 km/h (1 Bft) NW 315 11,7 C 6,0 km/h (2 Bft)
18.08.2015 10:50 16,4 C 19,5 C 75 % 1010,0 hPa 0,0 mm 3,4 km/h (1 Bft) W-NW 292 12,0 C 2,8 km/h (1 Bft)
18.08.2015 10:55 17,2 C 21,0 C 75 % 1010,1 hPa 0,0 mm 3,6 km/h (1 Bft) NW 315 12,7 C 6,2 km/h (2 Bft)
18.08.2015 11:00 17,2 C 22,3 C 74 % 1010,1 hPa 0,0 mm 2,8 km/h (1 Bft) N-NO 22 12,5 C 4,1 km/h (1 Bft)
18.08.2015 11:05 17,4 C 22,6 C 74 % 1010,1 hPa 0,0 mm 3,6 km/h (1 Bft) SO 135 12,7 C 6,7 km/h (2 Bft)
18.08.2015 11:10 17,2 C 22,0 C 73 % 1010,1 hPa 0,0 mm 4,1 km/h (1 Bft) O-NO 67 12,3 C 10,6 km/h (2 Bft)
18.08.2015 11:15 17,0 C 21,3 C 73 % 1010,2 hPa 0,0 mm 2,3 km/h (1 Bft) O-NO 67 12,1 C 3,6 km/h (1 Bft)
18.08.2015 11:20 16,7 C 20,7 C 73 % 1010,2 hPa 0,0 mm 0,8 km/h (0 Bft) O-NO 67 11,8 C 5,2 km/h (1 Bft)
18.08.2015 11:25 16,6 C 20,5 C 73 % 1010,2 hPa 0,0 mm 1,3 km/h (1 Bft) O-NO 67 11,7 C 0,0 km/h (0 Bft)
18.08.2015 11:30 16,7 C 20,4 C 73 % 1010,2 hPa 0,0 mm 3,4 km/h (1 Bft) N-NO 22 11,8 C 6,2 km/h (2 Bft)
18.08.2015 11:35 16,6 C 20,4 C 73 % 1010,3 hPa 0,0 mm 2,6 km/h (1 Bft) O-NO 67 11,7 C 0,0 km/h (0 Bft)
18.08.2015 11:36 17,0 C 21,0 C 73 % 1010,3 hPa 0,0 mm 2,1 km/h (1 Bft) N-NO 22 12,1 C 2,8 km/h (1 Bft)
18.08.2015 11:39 17,0 C 21,0 C 73 % 1010,3 hPa 0,0 mm 2,1 km/h (1 Bft) N-NO 22 12,1 C 2,8 km/h (1 Bft)
18.08.2015 11:40 17,0 C 21,0 C 73 % 1010,3 hPa 0,0 mm 2,1 km/h (1 Bft) N-NO 22 12,1 C 2,8 km/h (1 Bft)
18.08.2015 11:45 17,2 C 21,1 C 72 % 1010,3 hPa 0,0 mm 2,6 km/h (1 Bft) O 90 12,1 C 4,4 km/h (1 Bft)
18.08.2015 11:50 16,8 C 20,8 C 72 % 1010,3 hPa 0,0 mm 2,8 km/h (1 Bft) O-NO 67 11,7 C 3,6 km/h (1 Bft)
18.08.2015 11:55 16,9 C 20,8 C 72 % 1010,2 hPa 0,0 mm 1,8 km/h (1 Bft) NO 45 11,8 C 0,0 km/h (0 Bft)
18.08.2015 12:00 17,3 C 21,5 C 72 % 1010,2 hPa 0,0 mm 1,0 km/h (0 Bft) NO 45 12,2 C 3,6 km/h (1 Bft)
18.08.2015 12:05 17,9 C 23,4 C 71 % 1010,2 hPa 0,0 mm 2,1 km/h (1 Bft) O-NO 67 12,6 C 6,7 km/h (2 Bft)
18.08.2015 12:10 18,3 C 24,7 C 70 % 1010,2 hPa 0,0 mm 3,1 km/h (1 Bft) SO 135 12,7 C 2,6 km/h (1 Bft)
18.08.2015 12:15 18,6 C 25,6 C 70 % 1010,2 hPa 0,0 mm 2,3 km/h (1 Bft) S-SO 157 13,0 C 0,0 km/h (0 Bft)
18.08.2015 12:20 19,1 C 26,6 C 69 % 1010,2 hPa 0,0 mm 2,3 km/h (1 Bft) N-NO 22 13,3 C 11,1 km/h (2 Bft)
18.08.2015 12:25 19,2 C 26,4 C 67 % 1010,2 hPa 0,0 mm 4,9 km/h (1 Bft) O-NO 67 12,9 C 10,4 km/h (2 Bft)
18.08.2015 12:30 18,3 C 24,4 C 66 % 1010,2 hPa 0,0 mm 6,5 km/h (2 Bft) O-NO 67 11,8 C 13,5 km/h (3 Bft)
18.08.2015 12:35 18,0 C 23,3 C 66 % 1010,5 hPa 0,0 mm 4,9 km/h (1 Bft) N-NO 22 11,6 C 0,0 km/h (0 Bft)
18.08.2015 12:40 17,9 C 22,6 C 68 % 1010,5 hPa 0,0 mm 2,1 km/h (1 Bft) NO 45 11,9 C 10,9 km/h (2 Bft)
18.08.2015 12:45 17,9 C 22,2 C 68 % 1010,5 hPa 0,0 mm 1,6 km/h (1 Bft) SO 135 11,9 C 7,0 km/h (2 Bft)
18.08.2015 12:50 17,6 C 21,6 C 68 % 1010,5 hPa 0,0 mm 3,1 km/h (1 Bft) NO 45 11,6 C 2,8 km/h (1 Bft)
18.08.2015 12:55 18,1 C 22,5 C 68 % 1010,4 hPa 0,0 mm 3,6 km/h (1 Bft) N-NW 337 12,1 C 3,9 km/h (1 Bft)
18.08.2015 13:00 18,4 C 22,9 C 67 % 1010,4 hPa 0,0 mm 4,4 km/h (1 Bft) N-NW 337 12,2 C 4,4 km/h (1 Bft)
18.08.2015 13:05 19,1 C 23,3 C 67 % 1010,4 hPa 0,0 mm 6,5 km/h (2 Bft) W-NW 292 12,8 C 10,4 km/h (2 Bft)
18.08.2015 13:10 19,2 C 23,2 C 67 % 1010,4 hPa 0,0 mm 7,3 km/h (2 Bft) N-NO 22 12,9 C 5,7 km/h (1 Bft)
18.08.2015 13:15 19,3 C 22,9 C 67 % 1010,3 hPa 0,0 mm 7,5 km/h (2 Bft) N-NO 22 13,0 C 11,1 km/h (2 Bft)
18.08.2015 13:20 19,1 C 22,7 C 67 % 1010,3 hPa 0,0 mm 7,3 km/h (2 Bft) NO 45 12,8 C 13,7 km/h (3 Bft)
18.08.2015 13:25 18,8 C 22,7 C 67 % 1010,3 hPa 0,0 mm 5,4 km/h (1 Bft) NO 45 12,5 C 2,6 km/h (1 Bft)
18.08.2015 13:30 18,4 C 21,6 C 68 % 1010,3 hPa 0,0 mm 4,9 km/h (1 Bft) N-NO 22 12,4 C 11,7 km/h (2 Bft)
18.08.2015 13:35 18,1 C 20,8 C 67 % 1010,3 hPa 0,0 mm 5,2 km/h (1 Bft) N-NO 22 11,9 C 3,4 km/h (1 Bft)
18.08.2015 13:40 18,0 C 20,3 C 68 % 1010,3 hPa 0,0 mm 5,2 km/h (1 Bft) N-NW 337 12,0 C 7,0 km/h (2 Bft)
18.08.2015 13:45 18,0 C 20,2 C 68 % 1010,3 hPa 0,0 mm 4,1 km/h (1 Bft) N 360 12,0 C 5,4 km/h (1 Bft)
18.08.2015 13:50 18,0 C 20,2 C 67 % 1010,3 hPa 0,0 mm 4,4 km/h (1 Bft) N-NO 22 11,8 C 3,9 km/h (1 Bft)
18.08.2015 13:55 18,1 C 20,4 C 68 % 1010,2 hPa 0,0 mm 4,7 km/h (1 Bft) NO 45 12,1 C 9,8 km/h (2 Bft)
18.08.2015 14:00 18,0 C 20,3 C 67 % 1010,2 hPa 0,0 mm 5,4 km/h (1 Bft) O 90 11,8 C 6,2 km/h (2 Bft)
18.08.2015 14:05 18,0 C 20,6 C 67 % 1010,2 hPa 0,0 mm 5,4 km/h (1 Bft) NO 45 11,8 C 5,7 km/h (1 Bft)
18.08.2015 14:10 18,2 C 21,3 C 67 % 1010,2 hPa 0,0 mm 3,4 km/h (1 Bft) NO 45 12,0 C 4,9 km/h (1 Bft)
18.08.2015 14:15 18,2 C 21,8 C 67 % 1010,3 hPa 0,0 mm 2,3 km/h (1 Bft) O-SO 112 12,0 C 0,0 km/h (0 Bft)
18.08.2015 14:20 18,4 C 22,0 C 66 % 1010,3 hPa 0,0 mm 2,8 km/h (1 Bft) N-NW 337 11,9 C 6,2 km/h (2 Bft)
18.08.2015 14:25 18,6 C 22,2 C 66 % 1010,3 hPa 0,0 mm 4,4 km/h (1 Bft) NW 315 12,1 C 6,2 km/h (2 Bft)
18.08.2015 14:30 18,7 C 22,0 C 66 % 1010,3 hPa 0,0 mm 4,4 km/h (1 Bft) O-SO 112 12,2 C 0,0 km/h (0 Bft)
18.08.2015 14:35 18,4 C 21,9 C 65 % 1009,8 hPa 0,0 mm 3,4 km/h (1 Bft) N-NO 22 11,7 C 6,0 km/h (2 Bft)
18.08.2015 14:40 18,5 C 21,9 C 66 % 1009,8 hPa 0,0 mm 2,6 km/h (1 Bft) O 90 12,0 C 0,0 km/h (0 Bft)
18.08.2015 14:45 18,7 C 22,2 C 66 % 1009,8 hPa 0,0 mm 3,4 km/h (1 Bft) NO 45 12,2 C 5,4 km/h (1 Bft)
18.08.2015 14:50 18,8 C 21,9 C 65 % 1009,8 hPa 0,0 mm 3,4 km/h (1 Bft) O 90 12,1 C 0,0 km/h (0 Bft)
18.08.2015 14:55 18,6 C 21,6 C 65 % 1010,1 hPa 0,0 mm 2,8 km/h (1 Bft) NO 45 11,9 C 6,5 km/h (2 Bft)
18.08.2015 15:00 18,5 C 21,0 C 66 % 1010,1 hPa 0,0 mm 3,9 km/h (1 Bft) N-NO 22 12,0 C 6,2 km/h (2 Bft)
18.08.2015 15:05 18,6 C 21,2 C 66 % 1010,1 hPa 0,0 mm 4,7 km/h (1 Bft) NO 45 12,1 C 5,4 km/h (1 Bft)
18.08.2015 15:10 18,7 C 21,4 C 65 % 1010,1 hPa 0,0 mm 5,2 km/h (1 Bft) NO 45 12,0 C 7,0 km/h (2 Bft)
18.08.2015 15:15 18,8 C 21,6 C 64 % 1009,9 hPa 0,0 mm 3,9 km/h (1 Bft) N-NO 22 11,8 C 2,6 km/h (1 Bft)
18.08.2015 15:20 18,8 C 21,7 C 63 % 1009,9 hPa 0,0 mm 3,6 km/h (1 Bft) NO 45 11,6 C 4,7 km/h (1 Bft)
18.08.2015 15:25 18,7 C 21,5 C 63 % 1009,9 hPa 0,0 mm 4,1 km/h (1 Bft) SW 225 11,5 C 8,0 km/h (2 Bft)
18.08.2015 15:30 18,6 C 21,1 C 63 % 1009,9 hPa 0,0 mm 4,7 km/h (1 Bft) O-NO 67 11,4 C 0,0 km/h (0 Bft)
18.08.2015 15:35 18,6 C 20,9 C 64 % 1009,9 hPa 0,0 mm 4,9 km/h (1 Bft) O-NO 67 11,7 C 3,6 km/h (1 Bft)
18.08.2015 15:40 18,5 C 20,5 C 63 % 1009,9 hPa 0,0 mm 2,6 km/h (1 Bft) N-NW 337 11,3 C 3,1 km/h (1 Bft)
18.08.2015 15:45 18,5 C 20,4 C 63 % 1009,9 hPa 0,0 mm 2,3 km/h (1 Bft) NW 315 11,3 C 6,2 km/h (2 Bft)
18.08.2015 15:50 18,7 C 20,4 C 64 % 1009,9 hPa 0,0 mm 3,1 km/h (1 Bft) N-NW 337 11,7 C 5,7 km/h (1 Bft)
18.08.2015 15:55 18,5 C 20,2 C 63 % 1010,0 hPa 0,0 mm 4,4 km/h (1 Bft) NW 315 11,3 C 5,4 km/h (1 Bft)
18.08.2015 16:00 18,4 C 19,8 C 64 % 1010,0 hPa 0,0 mm 4,1 km/h (1 Bft) NO 45 11,5 C 0,0 km/h (0 Bft)
18.08.2015 16:05 18,3 C 19,6 C 65 % 1010,0 hPa 0,0 mm 3,6 km/h (1 Bft) N 360 11,6 C 10,9 km/h (2 Bft)
18.08.2015 16:10 18,0 C 19,0 C 65 % 1010,0 hPa 0,0 mm 3,1 km/h (1 Bft) O-NO 67 11,3 C 2,6 km/h (1 Bft)
18.08.2015 16:15 17,9 C 18,7 C 65 % 1010,1 hPa 0,0 mm 3,6 km/h (1 Bft) N-NW 337 11,2 C 6,0 km/h (2 Bft)
18.08.2015 16:20 17,7 C 18,3 C 66 % 1010,1 hPa 0,0 mm 2,6 km/h (1 Bft) O-NO 67 11,3 C 0,0 km/h (0 Bft)
18.08.2015 16:25 17,3 C 17,5 C 67 % 1010,1 hPa 0,0 mm 1,8 km/h (1 Bft) O-NO 67 11,1 C 0,0 km/h (0 Bft)
18.08.2015 16:30 16,7 C 16,5 C 70 % 1010,1 hPa 0,0 mm 2,1 km/h (1 Bft) S-SW 202 11,2 C 5,4 km/h (1 Bft)
18.08.2015 16:35 16,5 C 16,2 C 72 % 1010,1 hPa 0,0 mm 3,1 km/h (1 Bft) S 180 11,4 C 2,6 km/h (1 Bft)
18.08.2015 16:40 16,0 C 15,7 C 77 % 1010,1 hPa 0,0 mm 2,8 km/h (1 Bft) S 180 12,0 C 3,1 km/h (1 Bft)
18.08.2015 16:45 15,8 C 15,6 C 78 % 1010,1 hPa 0,0 mm 2,3 km/h (1 Bft) S 180 12,0 C 4,7 km/h (1 Bft)
18.08.2015 16:50 15,6 C 15,3 C 78 % 1010,1 hPa 0,0 mm 2,6 km/h (1 Bft) S 180 11,8 C 3,1 km/h (1 Bft)
18.08.2015 16:55 15,5 C 15,3 C 77 % 1010,2 hPa 0,0 mm 3,1 km/h (1 Bft) S 180 11,5 C 4,9 km/h (1 Bft)
18.08.2015 17:00 15,3 C 15,2 C 78 % 1010,2 hPa 0,7 mm 2,6 km/h (1 Bft) SW 225 11,5 C 6,5 km/h (2 Bft)
18.08.2015 17:05 15,3 C 15,1 C 78 % 1010,2 hPa 0,0 mm 3,1 km/h (1 Bft) W-SW 247 11,5 C 3,4 km/h (1 Bft)
18.08.2015 17:10 15,1 C 15,0 C 79 % 1010,2 hPa 0,0 mm 2,1 km/h (1 Bft) SO 135 11,5 C 0,0 km/h (0 Bft)
18.08.2015 17:15 15,1 C 15,0 C 79 % 1010,4 hPa 0,0 mm 0,3 km/h (0 Bft) S 180 11,5 C 0,0 km/h (0 Bft)
18.08.2015 17:20 15,1 C 15,0 C 79 % 1010,4 hPa 0,0 mm 0,3 km/h (0 Bft) SO 135 11,5 C 0,0 km/h (0 Bft)
18.08.2015 17:25 15,0 C 14,8 C 82 % 1010,4 hPa 0,0 mm 0,3 km/h (0 Bft) S-SO 157 12,0 C 0,0 km/h (0 Bft)
18.08.2015 17:30 14,9 C 14,8 C 82 % 1010,4 hPa 0,7 mm 0,0 km/h (0 Bft) S-SO 157 11,9 C 0,0 km/h (0 Bft)
18.08.2015 17:35 14,9 C 14,8 C 81 % 1010,4 hPa 0,0 mm 0,8 km/h (0 Bft) SW 225 11,7 C 4,9 km/h (1 Bft)
18.08.2015 17:36 14,8 C 14,7 C 81 % 1010,4 hPa 0,0 mm 2,1 km/h (1 Bft) W-SW 247 11,6 C 0,0 km/h (0 Bft)
18.08.2015 17:40 14,8 C 14,7 C 81 % 1010,4 hPa 0,0 mm 2,1 km/h (1 Bft) W-SW 247 11,6 C 0,0 km/h (0 Bft)
18.08.2015 17:45 14,8 C 14,8 C 81 % 1010,4 hPa 0,0 mm 1,6 km/h (1 Bft) W-SW 247 11,6 C 0,0 km/h (0 Bft)
18.08.2015 17:50 14,9 C 14,8 C 83 % 1010,4 hPa 0,0 mm 0,0 km/h (0 Bft) SO 135 12,0 C 0,0 km/h (0 Bft)
18.08.2015 17:55 14,9 C 14,8 C 83 % 1010,5 hPa 0,0 mm 0,0 km/h (0 Bft) SO 135 12,0 C 0,0 km/h (0 Bft)
18.08.2015 18:00 14,9 C 14,9 C 82 % 1010,5 hPa 0,0 mm 0,0 km/h (0 Bft) W-SW 247 11,9 C 0,0 km/h (0 Bft)
18.08.2015 18:05 14,9 C 14,9 C 82 % 1010,5 hPa 0,0 mm 1,0 km/h (0 Bft) SW 225 11,9 C 6,2 km/h (2 Bft)
18.08.2015 18:10 14,7 C 14,7 C 82 % 1010,5 hPa 0,7 mm 3,6 km/h (1 Bft) W 270 11,7 C 6,0 km/h (2 Bft)
18.08.2015 18:15 14,7 C 14,7 C 83 % 1010,5 hPa 0,0 mm 3,6 km/h (1 Bft) W-SW 247 11,8 C 0,0 km/h (0 Bft)
18.08.2015 18:20 14,6 C 14,7 C 83 % 1010,5 hPa 0,0 mm 2,3 km/h (1 Bft) W-SW 247 11,7 C 5,2 km/h (1 Bft)
18.08.2015 18:25 14,6 C 14,6 C 83 % 1010,5 hPa 0,0 mm 2,8 km/h (1 Bft) SW 225 11,7 C 5,4 km/h (1 Bft)
18.08.2015 18:30 14,5 C 14,5 C 83 % 1010,5 hPa 0,0 mm 2,3 km/h (1 Bft) W 270 11,6 C 0,0 km/h (0 Bft)
18.08.2015 18:35 14,5 C 14,6 C 83 % 1010,6 hPa 0,0 mm 1,0 km/h (0 Bft) SW 225 11,6 C 0,0 km/h (0 Bft)
18.08.2015 18:40 14,5 C 14,5 C 83 % 1010,6 hPa 0,7 mm 0,3 km/h (0 Bft) SW 225 11,6 C 0,0 km/h (0 Bft)
18.08.2015 18:45 14,4 C 14,5 C 83 % 1010,6 hPa 0,0 mm 0,3 km/h (0 Bft) S-SO 157 11,5 C 0,0 km/h (0 Bft)
18.08.2015 18:50 14,3 C 14,2 C 85 % 1010,6 hPa 0,0 mm 0,3 km/h (0 Bft) S-SO 157 11,8 C 0,0 km/h (0 Bft)
18.08.2015 18:55 14,2 C 14,2 C 85 % 1010,4 hPa 0,0 mm 0,0 km/h (0 Bft) SO 135 11,7 C 0,0 km/h (0 Bft)
18.08.2015 19:00 14,2 C 14,1 C 85 % 1010,4 hPa 0,0 mm 0,0 km/h (0 Bft) SO 135 11,7 C 0,0 km/h (0 Bft)
18.08.2015 19:05 14,2 C 14,1 C 86 % 1010,4 hPa 0,0 mm 0,5 km/h (0 Bft) S-SO 157 11,9 C 2,8 km/h (1 Bft)
18.08.2015 19:10 14,2 C 14,2 C 84 % 1010,4 hPa 0,0 mm 1,3 km/h (1 Bft) SO 135 11,5 C 3,6 km/h (1 Bft)
18.08.2015 19:15 14,2 C 14,2 C 84 % 1010,9 hPa 0,0 mm 1,3 km/h (1 Bft) SO 135 11,5 C 0,0 km/h (0 Bft)
18.08.2015 19:20 14,2 C 14,2 C 84 % 1010,9 hPa 0,0 mm 0,5 km/h (0 Bft) SO 135 11,5 C 0,0 km/h (0 Bft)
18.08.2015 19:25 14,2 C 14,2 C 85 % 1010,9 hPa 0,0 mm 0,0 km/h (0 Bft) O-SO 112 11,7 C 0,0 km/h (0 Bft)
18.08.2015 19:30 14,2 C 14,1 C 86 % 1010,9 hPa 0,0 mm 0,0 km/h (0 Bft) O 90 11,9 C 0,0 km/h (0 Bft)
18.08.2015 19:35 14,2 C 14,1 C 86 % 1010,4 hPa 0,0 mm 0,0 km/h (0 Bft) O-SO 112 11,9 C 0,0 km/h (0 Bft)
18.08.2015 19:40 14,1 C 14,0 C 87 % 1010,4 hPa 0,0 mm 0,3 km/h (0 Bft) O 90 12,0 C 0,0 km/h (0 Bft)
18.08.2015 19:45 14,1 C 14,0 C 87 % 1010,4 hPa 0,0 mm 0,3 km/h (0 Bft) SO 135 12,0 C 0,0 km/h (0 Bft)
18.08.2015 19:50 14,1 C 14,0 C 87 % 1010,4 hPa 0,0 mm 0,0 km/h (0 Bft) O-NO 67 12,0 C 0,0 km/h (0 Bft)
18.08.2015 19:55 14,1 C 14,0 C 85 % 1010,4 hPa 0,0 mm 0,0 km/h (0 Bft) O-SO 112 11,6 C 0,0 km/h (0 Bft)
18.08.2015 20:00 14,0 C 13,9 C 87 % 1010,4 hPa 0,0 mm 0,0 km/h (0 Bft) S-SO 157 11,9 C 0,0 km/h (0 Bft)
18.08.2015 20:05 14,0 C 13,9 C 87 % 1010,4 hPa 0,0 mm 0,0 km/h (0 Bft) O-SO 112 11,9 C 0,0 km/h (0 Bft)
18.08.2015 20:10 13,9 C 13,8 C 87 % 1010,4 hPa 0,0 mm 0,0 km/h (0 Bft) O-SO 112 11,8 C 0,0 km/h (0 Bft)
18.08.2015 20:15 13,9 C 13,7 C 87 % 1010,8 hPa 0,0 mm 0,0 km/h (0 Bft) O-SO 112 11,8 C 0,0 km/h (0 Bft)
18.08.2015 20:20 13,8 C 13,7 C 87 % 1010,8 hPa 0,0 mm 0,0 km/h (0 Bft) O 90 11,7 C 0,0 km/h (0 Bft)
18.08.2015 20:25 13,8 C 13,7 C 87 % 1010,8 hPa 0,0 mm 0,0 km/h (0 Bft) SO 135 11,7 C 0,0 km/h (0 Bft)
18.08.2015 20:30 13,8 C 13,7 C 88 % 1010,8 hPa 0,0 mm 0,0 km/h (0 Bft) O-NO 67 11,8 C 0,0 km/h (0 Bft)
18.08.2015 20:35 13,8 C 13,7 C 88 % 1010,7 hPa 0,0 mm 0,0 km/h (0 Bft) O-SO 112 11,8 C 0,0 km/h (0 Bft)
18.08.2015 20:40 13,7 C 13,6 C 88 % 1010,7 hPa 0,0 mm 0,0 km/h (0 Bft) SO 135 11,7 C 0,0 km/h (0 Bft)
18.08.2015 20:45 13,7 C 13,6 C 88 % 1010,7 hPa 0,0 mm 0,0 km/h (0 Bft) SO 135 11,7 C 0,0 km/h (0 Bft)
18.08.2015 20:50 13,6 C 13,5 C 86 % 1010,7 hPa 0,0 mm 0,0 km/h (0 Bft) O-SO 112 11,3 C 0,0 km/h (0 Bft)
18.08.2015 20:55 13,6 C 13,5 C 88 % 1010,9 hPa 0,0 mm 0,0 km/h (0 Bft) O-SO 112 11,6 C 0,0 km/h (0 Bft)
18.08.2015 21:00 13,6 C 13,5 C 88 % 1010,9 hPa 0,0 mm 0,0 km/h (0 Bft) SO 135 11,6 C 0,0 km/h (0 Bft)
18.08.2015 21:05 13,6 C 13,5 C 88 % 1010,9 hPa 0,0 mm 0,0 km/h (0 Bft) O-SO 112 11,6 C 0,0 km/h (0 Bft)
18.08.2015 21:10 13,5 C 13,4 C 88 % 1010,9 hPa 0,0 mm 0,0 km/h (0 Bft) O-SO 112 11,6 C 0,0 km/h (0 Bft)
18.08.2015 21:15 13,5 C 13,4 C 88 % 1010,8 hPa 0,0 mm 0,0 km/h (0 Bft) O-SO 112 11,6 C 0,0 km/h (0 Bft)
18.08.2015 21:20 13,5 C 13,4 C 88 % 1010,8 hPa 0,0 mm 0,0 km/h (0 Bft) S-SO 157 11,6 C 0,0 km/h (0 Bft)
18.08.2015 21:25 13,5 C 13,4 C 88 % 1010,8 hPa 0,0 mm 0,0 km/h (0 Bft) O-SO 112 11,6 C 0,0 km/h (0 Bft)
18.08.2015 21:30 13,5 C 13,4 C 88 % 1010,8 hPa 0,0 mm 0,0 km/h (0 Bft) O-SO 112 11,6 C 0,0 km/h (0 Bft)
18.08.2015 21:35 13,5 C 13,4 C 88 % 1010,8 hPa 0,0 mm 0,0 km/h (0 Bft) SO 135 11,6 C 0,0 km/h (0 Bft)
18.08.2015 21:40 13,5 C 13,4 C 88 % 1010,8 hPa 0,0 mm 0,0 km/h (0 Bft) SO 135 11,6 C 0,0 km/h (0 Bft)
18.08.2015 21:45 13,5 C 13,4 C 89 % 1010,8 hPa 0,0 mm 0,0 km/h (0 Bft) O-NO 67 11,7 C 0,0 km/h (0 Bft)
18.08.2015 21:50 13,5 C 13,4 C 89 % 1010,8 hPa 0,0 mm 0,0 km/h (0 Bft) S-SO 157 11,7 C 0,0 km/h (0 Bft)
18.08.2015 21:55 13,4 C 13,3 C 89 % 1011,0 hPa 0,0 mm 0,0 km/h (0 Bft) S-SO 157 11,6 C 0,0 km/h (0 Bft)
18.08.2015 22:00 13,4 C 13,3 C 89 % 1011,0 hPa 0,0 mm 0,0 km/h (0 Bft) S-SO 157 11,6 C 0,0 km/h (0 Bft)
18.08.2015 22:05 13,4 C 13,3 C 89 % 1011,0 hPa 0,0 mm 0,0 km/h (0 Bft) S 180 11,6 C 0,0 km/h (0 Bft)
18.08.2015 22:10 13,4 C 13,3 C 89 % 1011,0 hPa 0,0 mm 0,0 km/h (0 Bft) O 90 11,6 C 0,0 km/h (0 Bft)
18.08.2015 22:15 13,3 C 13,2 C 89 % 1011,1 hPa 0,0 mm 0,0 km/h (0 Bft) SW 225 11,5 C 0,0 km/h (0 Bft)
18.08.2015 22:20 13,3 C 13,2 C 89 % 1011,1 hPa 0,0 mm 0,0 km/h (0 Bft) SW 225 11,5 C 0,0 km/h (0 Bft)
18.08.2015 22:25 13,3 C 13,2 C 89 % 1011,1 hPa 0,0 mm 0,0 km/h (0 Bft) O-SO 112 11,5 C 0,0 km/h (0 Bft)
18.08.2015 22:30 13,2 C 13,1 C 86 % 1011,1 hPa 0,0 mm 0,0 km/h (0 Bft) W 270 10,9 C 0,0 km/h (0 Bft)
18.08.2015 22:35 13,2 C 13,1 C 86 % 1011,0 hPa 0,0 mm 0,3 km/h (0 Bft) SW 225 10,9 C 0,0 km/h (0 Bft)
18.08.2015 22:40 13,2 C 13,0 C 89 % 1011,0 hPa 0,0 mm 0,3 km/h (0 Bft) W-SW 247 11,4 C 0,0 km/h (0 Bft)
18.08.2015 22:45 13,2 C 13,0 C 89 % 1011,0 hPa 0,0 mm 0,0 km/h (0 Bft) W-SW 247 11,4 C 0,0 km/h (0 Bft)
18.08.2015 22:50 13,1 C 13,0 C 89 % 1011,0 hPa 0,0 mm 0,0 km/h (0 Bft) S-SW 202 11,3 C 0,0 km/h (0 Bft)
18.08.2015 22:55 13,1 C 13,0 C 89 % 1011,1 hPa 0,0 mm 0,0 km/h (0 Bft) S-SO 157 11,3 C 0,0 km/h (0 Bft)
18.08.2015 23:00 13,1 C 13,0 C 89 % 1011,1 hPa 0,0 mm 0,0 km/h (0 Bft) S-SO 157 11,3 C 0,0 km/h (0 Bft)
18.08.2015 23:05 13,1 C 13,0 C 89 % 1011,1 hPa 0,0 mm 0,0 km/h (0 Bft) S-SW 202 11,3 C 0,0 km/h (0 Bft)
18.08.2015 23:10 13,1 C 13,0 C 89 % 1011,1 hPa 0,0 mm 0,0 km/h (0 Bft) S-SO 157 11,3 C 0,0 km/h (0 Bft)
18.08.2015 23:15 13,0 C 12,9 C 89 % 1010,9 hPa 0,0 mm 0,0 km/h (0 Bft) S 180 11,2 C 0,0 km/h (0 Bft)
18.08.2015 23:20 13,0 C 13,0 C 87 % 1010,9 hPa 0,0 mm 0,0 km/h (0 Bft) S 180 10,9 C 0,0 km/h (0 Bft)
18.08.2015 23:25 13,0 C 12,9 C 89 % 1010,9 hPa 0,0 mm 0,0 km/h (0 Bft) S 180 11,2 C 0,0 km/h (0 Bft)
18.08.2015 23:30 13,0 C 13,0 C 87 % 1010,9 hPa 0,0 mm 0,0 km/h (0 Bft) S-SW 202 10,9 C 0,0 km/h (0 Bft)
18.08.2015 23:35 13,1 C 13,0 C 89 % 1011,1 hPa 0,0 mm 0,0 km/h (0 Bft) S-SW 202 11,3 C 0,0 km/h (0 Bft)
18.08.2015 23:36 13,1 C 13,0 C 89 % 1011,1 hPa 0,0 mm 0,0 km/h (0 Bft) S-SO 157 11,3 C 0,0 km/h (0 Bft)
18.08.2015 23:41 13,1 C 13,0 C 89 % 1011,1 hPa 0,0 mm 0,0 km/h (0 Bft) S-SO 157 11,3 C 0,0 km/h (0 Bft)
18.08.2015 23:45 13,1 C 13,0 C 89 % 1011,1 hPa 0,0 mm 0,0 km/h (0 Bft) S 180 11,3 C 0,0 km/h (0 Bft)
18.08.2015 23:50 13,1 C 13,0 C 89 % 1011,1 hPa 0,0 mm 0,0 km/h (0 Bft) S-SW 202 11,3 C 0,0 km/h (0 Bft)
18.08.2015 23:55 13,1 C 13,0 C 89 % 1011,1 hPa 0,0 mm 0,0 km/h (0 Bft) S 180 11,3 C 0,0 km/h (0 Bft)
_ Min-Zeit 04:50 04:55 15:55 06:30 - 23:55 - - 02:55 23:55
Minimum _ 8,6 C 8,5 C 63 % 1008,3 hPa - 0,0 km/h (0 Bft) - - 7,2 C 0,0 km/h (0 Bft)
_ Max-Zeit 13:15 12:20 06:55 23:55 18:40 13:15 - - 12:20 13:20
Maximum _ 19,3 C 26,6 C 92 % 1011,1 hPa 0,7 mm 7,5 km/h
N-NO (2 Bft)
- - 13,3 C 13,7 km/h
NO (3 Bft)
Durchschnitt _ 13,6 C 14,7 C 83 % 1009,7 hPa #3,4 mm 1,2 km/h (1 Bft) N-NO - 10,6 C 1,8 km/h (1 Bft)